GFSSGP_sfc_temp_096.txt.gz
Temp
71 69 63 64 55 49 42 48 50 52 52 54 57 58 57 53 55 49 62 66 68 68 70 72 74 75 75 75 75 75 76 76 76 76 76 76 77 76 77 77 77 77 77 77 77 76 75 74 74
71 71 64 55 48 41 44 48 52 55 57 56 57 56 55 51 58 62 62 68 69 69 70 70 72 74 75 75 75 75 76 75 76 76 76 76 76 76 77 77 76 77 76 76 76 75 75 74 73
70 69 61 51 43 43 45 50 53 54 57 56 55 57 55 55 61 63 65 68 68 68 69 70 72 74 75 74 75 75 75 75 76 76 76 76 76 76 76 77 76 76 76 76 75 75 74 73 73
68 67 57 50 43 48 49 52 54 55 54 58 56 53 56 62 62 65 68 68 67 67 68 70 73 74 74 74 75 75 75 75 76 75 75 75 76 76 75 75 75 75 75 75 74 74 73 73 73
61 57 49 44 45 49 49 54 55 54 54 53 54 51 53 61 65 67 66 67 66 66 67 69 72 73 74 74 74 75 75 75 75 75 75 75 76 75 75 74 74 74 74 74 73 73 72 72 71
60 55 46 43 45 50 51 56 56 54 52 52 55 53 53 62 65 65 66 65 66 65 67 68 68 70 72 73 73 73 74 74 74 74 74 74 74 74 74 74 74 73 73 73 73 72 72 71 71
57 50 45 44 45 48 53 57 53 53 52 54 58 51 57 62 65 64 64 64 65 65 65 66 68 68 68 69 70 71 72 72 72 72 71 72 72 71 71 72 73 73 72 72 71 71 71 71 70
55 52 44 43 47 49 55 57 56 55 52 56 58 51 55 61 64 64 64 65 66 63 65 66 66 67 66 66 66 67 68 69 69 68 67 66 67 67 67 66 70 71 71 71 70 70 69 69 68
55 48 44 48 48 52 54 55 54 55 56 55 57 56 58 61 64 64 63 64 64 63 64 65 65 65 65 64 62 64 65 66 65 64 62 61 61 63 63 64 67 69 69 69 69 69 67 65 64
53 46 50 56 53 54 56 57 58 55 53 53 52 57 60 61 62 61 60 60 62 61 63 65 65 63 63 65 62 62 62 61 61 60 60 60 60 60 62 61 63 65 65 67 68 67 64 60 57
52 51 54 57 56 58 56 54 56 55 50 56 55 55 59 60 60 59 58 60 60 60 61 63 64 64 62 62 60 60 59 59 59 59 59 59 59 58 57 57 57 57 58 57 58 58 57 57 57
53 58 57 59 57 57 55 57 55 56 57 62 59 60 59 59 59 59 58 59 58 59 60 60 62 64 61 61 60 59 59 58 58 58 59 58 57 56 56 56 56 56 57 57 56 56 56 57 57
55 54 56 58 56 55 57 54 55 55 56 58 59 60 60 60 60 61 61 60 60 59 59 60 60 61 61 60 60 59 59 58 59 59 59 58 57 56 56 56 56 56 56 56 56 56 56 56 56
55 54 56 58 56 55 56 51 54 55 55 56 59 58 60 60 60 60 60 59 60 60 59 60 60 61 61 61 60 60 60 60 59 59 59 59 58 57 57 57 57 56 56 56 56 55 55 55 55
55 52 55 57 55 54 54 49 53 53 55 55 56 58 58 60 59 60 62 61 62 61 61 60 61 61 61 61 60 60 60 61 60 60 60 59 59 57 57 57 56 57 57 56 55 55 55 54 54
52 51 44 53 55 53 53 47 54 51 54 53 53 55 57 58 59 60 62 62 62 62 62 62 64 62 61 61 61 61 61 61 61 60 60 60 60 59 57 56 56 57 56 56 55 54 54 54 53
44 41 40 48 55 51 50 48 54 51 52 51 52 52 55 57 57 58 61 62 62 63 63 62 62 62 62 62 62 62 62 62 63 64 62 61 63 62 60 57 57 57 56 56 58 57 53 55 56
38 41 42 46 52 49 45 49 51 50 51 53 52 52 53 55 59 60 60 62 63 63 63 63 63 63 62 61 62 62 62 64 64 64 64 65 64 64 63 61 60 58 58 59 58 57 57 57 57
49 44 45 47 53 49 48 50 55 51 45 48 50 52 53 55 59 60 60 61 60 62 62 63 62 62 62 60 62 62 63 63 63 63 64 65 64 64 63 62 62 61 59 59 59 57 56 53 56
45 44 44 49 50 48 48 48 52 49 51 53 54 52 53 52 53 57 57 57 58 61 62 63 63 63 64 65 63 64 64 63 64 64 63 64 64 64 63 62 61 61 60 59 58 57 56 55 56
42 43 43 44 47 48 46 47 46 49 48 51 51 50 53 55 55 56 55 56 59 59 60 62 63 63 65 65 61 61 62 62 61 62 62 63 63 63 63 63 62 61 60 60 59 58 57 55 55
39 47 46 43 43 39 44 39 45 47 50 48 53 50 53 51 52 55 54 55 56 59 59 62 63 63 64 63 63 62 62 61 60 62 63 63 63 63 63 63 62 61 60 59 58 58 57 56 53
44 48 44 42 39 38 41 34 41 39 46 50 51 51 53 53 54 55 55 58 54 55 58 61 62 63 63 62 64 62 59 59 61 62 62 62 60 60 60 60 60 58 57 56 56 54 52 50 53
47 43 40 38 34 28 35 36 39 45 44 50 55 55 56 52 50 49 50 51 51 50 51 55 59 61 62 62 63 62 61 61 60 60 60 58 55 55 55 55 54 54 53 52 49 47 46 46 45
41 38 29 28 27 28 35 34 43 47 47 53 59 59 55 53 49 48 48 48 49 48 49 50 54 59 61 61 61 62 62 62 62 61 58 54 53 52 52 52 51 49 47 45 45 43 42 41 40
37 40 31 24 23 27 33 34 44 48 49 49 49 49 48 48 48 48 50 49 47 49 49 49 50 53 61 61 61 61 62 62 61 59 57 55 52 51 50 49 48 45 44 43 42 40 39 38 37
36 34 43 33 22 27 34 37 44 44 46 45 46 45 48 47 49 51 47 47 47 48 48 48 49 50 57 61 61 61 60 57 55 53 53 51 49 48 47 46 42 41 41 41 40 38 37 36 36
41 45 34 33 24 22 28 30 42 43 47 47 45 46 49 47 46 44 45 46 46 46 47 46 47 49 52 57 59 57 55 53 52 51 48 48 46 45 44 40 39 39 39 39 38 36 36 35 34
35 35 35 37 32 26 22 32 41 50 50 52 53 52 50 44 45 42 43 44 44 44 44 45 45 48 49 50 51 50 50 50 49 48 46 46 44 43 40 39 38 37 37 37 36 35 35 34 33
40 37 38 34 29 30 29 32 43 45 45 48 48 46 42 42 41 42 42 42 41 42 43 45 44 47 47 48 48 47 48 47 46 45 44 43 42 38 38 37 37 36 36 35 35 35 33 32 32

GFSSGP_sfc_temp_099.txt.gz
Temp
71 70 69 68 59 55 51 54 59 58 60 61 63 63 62 60 60 56 66 71 71 72 75 76 74 75 75 75 75 75 76 76 77 77 77 76 77 77 78 77 76 77 77 77 76 76 75 74 74
72 73 69 61 53 49 51 56 56 59 60 60 62 61 61 58 62 63 66 70 73 73 74 75 73 75 75 75 75 75 75 76 76 77 76 77 77 77 77 77 76 76 76 76 76 75 75 74 73
73 71 66 56 49 49 51 56 59 59 59 62 60 62 61 57 63 66 70 71 72 72 74 74 72 74 75 74 75 75 75 76 76 76 77 76 76 77 77 76 76 76 76 75 75 74 74 73 73
69 68 62 54 50 55 56 59 59 57 61 62 61 57 62 66 66 69 71 71 71 71 73 72 73 74 74 74 75 75 75 75 76 76 76 76 76 76 75 76 75 75 75 75 74 74 73 73 72
65 61 52 50 52 55 57 60 58 58 59 60 61 55 58 64 68 70 70 71 70 70 72 74 72 73 74 74 75 74 75 75 75 75 75 75 76 75 74 74 74 74 74 74 73 73 72 72 72
60 57 49 48 51 55 58 58 61 59 58 58 57 57 59 66 66 67 70 70 70 69 71 73 69 70 72 73 74 74 74 74 74 74 74 75 75 74 74 74 73 73 73 73 73 72 71 71 71
58 53 50 49 50 53 58 59 59 58 57 59 62 55 59 62 67 67 68 68 69 69 69 71 73 71 68 69 70 71 72 72 73 72 73 72 71 72 72 72 73 73 72 72 71 71 71 70 70
57 55 49 49 51 53 57 59 61 61 59 61 63 55 57 64 66 66 67 67 68 67 68 69 71 71 71 71 66 67 69 69 69 68 67 66 67 67 67 67 70 71 71 71 70 69 69 69 68
60 51 48 52 52 55 57 59 59 61 58 59 61 60 64 65 65 64 64 65 65 66 67 68 68 69 69 69 65 65 65 66 65 65 62 64 69 69 69 65 67 69 69 70 69 68 66 64 64
56 50 53 59 57 57 57 60 59 59 57 57 58 59 62 64 63 62 61 62 63 64 65 67 67 68 68 68 67 68 66 67 67 67 66 67 67 67 66 62 62 64 64 67 67 66 63 64 68
55 54 58 60 59 59 58 58 59 57 53 58 58 57 61 62 63 62 62 63 63 65 66 66 66 67 67 66 66 66 66 65 66 65 66 65 65 65 65 65 65 66 61 66 66 66 66 65 66
57 58 57 58 57 57 56 58 57 58 61 62 63 61 61 61 62 62 60 61 61 62 65 66 66 66 66 66 65 65 65 64 64 65 65 65 64 64 64 64 64 64 65 65 64 65 64 65 65
55 56 58 58 58 57 57 56 58 57 59 59 60 60 60 62 62 62 63 62 61 62 63 65 65 66 65 65 65 65 64 65 65 65 65 65 64 64 64 64 64 65 65 65 65 65 65 64 64
56 56 57 59 58 58 55 54 56 58 57 56 58 58 60 61 62 61 61 61 61 62 63 64 65 66 65 65 65 65 65 65 65 65 65 64 65 64 64 64 64 65 65 65 65 65 64 64 63
56 56 58 59 58 57 56 52 55 56 56 55 56 58 59 60 61 62 63 62 63 63 63 62 63 64 64 65 65 64 65 65 65 65 65 65 65 64 64 65 64 65 65 64 64 64 64 65 64
51 52 48 57 57 56 55 48 57 54 55 54 54 55 59 59 61 63 63 64 64 65 63 63 65 64 64 65 65 65 65 65 66 66 66 65 64 65 64 64 64 65 64 64 62 61 64 63 63
43 42 42 48 56 54 53 50 56 53 53 53 53 54 57 58 58 61 63 64 64 65 65 63 64 64 64 64 65 65 65 65 66 66 65 65 64 63 63 62 64 64 63 62 61 61 60 62 64
40 42 43 45 52 51 50 50 55 54 52 53 52 53 55 57 59 62 62 63 64 65 65 65 64 65 64 64 64 65 65 65 67 67 67 65 65 64 64 63 62 62 60 61 61 59 60 62 62
47 44 45 47 51 47 47 50 56 54 49 51 51 53 54 57 62 61 61 62 63 63 64 64 63 64 64 63 62 62 63 65 65 64 65 65 65 64 64 64 63 62 61 62 61 60 59 59 62
46 44 44 47 48 49 50 50 56 50 52 52 54 51 54 54 56 58 60 61 62 63 64 64 64 65 65 66 66 66 66 66 66 65 64 65 64 64 64 63 63 62 61 60 60 59 58 58 59
44 44 44 45 46 48 46 46 52 51 50 51 51 53 54 55 56 57 57 59 61 62 63 64 65 65 65 66 64 63 64 63 62 63 63 64 64 64 63 63 63 62 62 62 61 60 58 56 56
39 48 46 42 40 35 47 33 49 52 51 48 54 51 55 55 55 57 57 57 59 62 63 64 65 65 66 66 65 65 65 63 63 64 64 65 64 64 63 63 63 62 61 60 59 59 58 58 56
44 48 43 42 38 37 40 38 44 48 47 50 52 53 56 57 56 57 56 59 59 60 60 62 64 65 66 65 66 65 65 65 65 65 63 63 62 63 63 62 61 59 59 58 57 56 56 57 56
48 42 40 38 36 29 37 38 38 47 50 52 55 57 58 58 55 57 54 54 55 55 59 61 62 63 64 64 65 64 65 63 62 61 61 59 58 57 57 57 57 56 55 54 52 52 52 52 51
43 41 30 28 27 28 34 33 44 49 49 54 58 56 59 59 55 54 52 52 53 52 55 58 60 61 62 63 63 64 65 64 64 64 61 57 55 54 54 54 53 52 51 49 50 48 48 48 47
39 39 32 26 24 27 31 31 39 50 59 59 54 54 53 53 53 54 56 55 53 53 53 54 57 60 61 62 63 64 64 64 64 63 60 58 57 54 52 50 50 49 48 48 47 45 44 44 43
36 35 42 32 20 24 31 36 45 45 47 47 49 50 53 53 52 55 55 54 53 52 52 53 53 58 61 63 63 62 63 63 61 61 59 55 52 50 49 48 47 46 46 45 45 43 42 42 41
41 44 33 32 26 21 29 31 40 42 47 49 48 50 53 51 50 51 51 50 49 50 49 50 51 53 56 62 62 61 61 60 58 56 53 51 49 48 46 46 45 44 44 43 43 41 41 40 39
36 35 35 36 32 27 22 33 42 50 52 51 54 52 53 53 49 47 46 46 47 48 48 48 48 50 51 54 58 56 54 54 54 53 50 49 47 46 45 44 43 42 41 41 41 40 39 38 38
39 37 37 31 27 30 29 31 44 44 47 47 51 51 50 48 48 44 44 45 44 45 45 45 46 47 48 52 52 51 51 50 49 49 48 46 45 44 43 42 42 40 40 39 39 39 38 38 37

GFSSGP_sfc_temp_102.txt.gz
Temp
81 84 86 83 71 71 64 64 70 67 68 72 73 72 73 72 69 64 76 79 81 81 82 80 75 76 75 75 75 75 76 77 77 76 77 77 77 77 77 76 76 77 77 77 76 75 74 74 73
85 83 85 80 67 61 66 68 66 70 70 73 72 71 71 67 68 67 73 77 82 81 83 81 73 75 75 75 75 75 76 76 77 76 77 77 77 77 77 76 75 76 76 76 76 75 74 73 73
81 82 78 73 68 62 65 68 71 69 70 71 69 72 71 66 68 70 77 80 80 81 83 79 72 74 75 75 75 75 76 76 76 76 76 77 77 76 76 76 75 75 75 75 75 75 74 73 72
80 82 77 68 62 67 68 71 72 68 69 70 72 68 71 73 70 75 78 80 81 81 82 74 73 74 75 74 75 75 75 76 76 76 76 76 76 76 75 75 75 74 74 74 74 74 73 72 72
82 77 67 64 64 67 70 71 72 69 70 70 70 66 65 70 76 74 78 80 80 80 81 79 72 73 74 74 75 75 75 75 75 76 76 76 75 74 74 74 74 74 73 73 73 73 72 72 71
74 74 63 60 64 67 70 72 72 71 70 68 70 69 66 72 69 73 79 80 81 79 80 79 70 70 72 73 73 74 74 74 74 75 75 75 74 74 74 74 73 73 73 73 72 72 71 71 70
70 68 63 64 65 65 68 72 71 72 70 69 73 67 66 65 70 74 77 80 80 80 79 79 78 74 68 69 70 71 72 73 73 73 72 72 72 72 72 72 73 73 72 72 71 70 70 70 69
74 72 62 64 63 64 69 69 72 74 70 71 74 68 64 67 69 71 74 75 76 74 77 77 77 79 79 77 66 67 68 69 69 68 67 67 67 68 68 68 70 71 71 70 70 69 68 68 67
70 65 61 63 63 68 69 68 68 70 70 69 70 72 72 72 67 68 68 69 69 70 74 76 75 77 79 78 71 66 65 65 65 66 63 68 77 76 74 65 67 69 69 69 69 67 66 65 65
68 63 62 68 69 69 69 71 69 68 66 67 67 68 72 68 64 64 65 65 66 67 70 74 70 76 77 76 76 76 74 76 75 75 76 76 76 74 72 65 62 64 65 67 67 66 66 69 76
67 64 66 66 69 69 68 68 72 70 65 72 70 68 66 63 64 65 67 67 68 69 68 71 70 77 76 75 76 76 76 75 75 74 74 74 74 74 75 74 74 74 65 76 74 75 75 73 74
63 65 66 64 65 67 67 69 68 71 75 73 76 72 65 63 65 66 65 71 72 68 73 72 73 76 76 76 76 76 75 74 74 74 73 74 74 73 73 75 74 73 75 73 74 75 73 73 73
64 63 66 65 67 66 65 67 69 69 73 71 73 69 64 65 67 68 70 72 73 65 71 72 73 75 75 75 76 75 75 74 75 74 73 74 74 73 74 73 75 75 75 75 75 75 74 73 73
69 64 65 65 65 65 65 66 66 72 74 69 68 68 66 66 69 66 68 71 71 69 67 71 73 74 76 76 75 74 75 75 75 75 74 73 75 74 74 73 74 75 75 75 75 73 73 73 72
64 60 63 64 66 62 65 63 64 72 69 69 69 70 68 65 68 66 71 71 72 71 73 68 70 71 71 75 75 75 74 74 74 74 73 73 73 73 74 74 74 74 74 72 74 74 74 74 74
60 61 55 61 63 65 65 55 67 70 69 70 70 71 68 65 67 70 74 74 74 74 72 72 69 67 67 75 75 75 75 75 74 74 74 73 72 73 73 74 74 74 73 74 73 72 73 73 73
50 50 53 56 62 64 62 58 69 65 66 71 71 70 69 69 67 71 74 75 75 75 74 72 72 71 72 73 75 75 74 74 75 75 75 74 72 70 70 70 72 72 72 71 70 71 67 69 72
44 48 50 54 58 58 59 57 64 71 66 67 71 70 69 69 68 71 73 74 74 75 74 74 73 73 72 73 73 74 73 73 75 75 72 70 68 68 68 67 67 69 65 65 65 65 68 67 69
59 55 54 56 58 57 57 58 60 67 66 66 68 69 69 69 73 73 72 71 73 73 73 73 72 72 72 70 70 70 69 71 72 73 73 73 71 68 66 68 67 66 64 66 64 64 64 65 68
52 53 53 53 54 55 56 54 62 65 67 68 69 71 69 70 70 71 71 72 72 72 71 72 72 73 72 72 73 73 73 74 74 72 71 69 69 69 66 67 66 65 65 63 62 62 62 62 66
50 51 51 49 50 51 48 48 56 63 67 69 68 70 72 70 70 69 69 71 72 71 70 71 72 73 73 74 73 73 74 71 70 70 67 70 67 67 66 67 66 65 65 66 64 62 61 60 63
40 50 50 46 44 38 51 38 56 61 63 65 65 67 69 70 70 72 70 70 70 72 73 71 73 73 73 74 72 71 69 68 69 72 70 67 68 68 67 66 66 66 65 64 62 62 61 61 62
45 50 49 46 41 39 42 36 51 60 58 63 68 69 69 71 71 70 70 70 71 71 71 72 73 73 73 73 73 72 71 72 74 72 67 66 67 70 69 66 65 64 62 62 61 59 60 64 62
48 43 42 39 37 31 41 41 48 56 57 62 69 69 69 70 70 71 70 69 70 69 70 69 71 71 73 72 72 71 70 71 70 68 64 64 65 63 66 62 61 61 59 59 58 58 61 61 61
47 43 32 30 30 35 43 42 49 61 65 65 67 69 69 70 70 69 68 65 67 67 67 68 69 70 72 72 71 71 72 72 70 69 67 62 59 58 59 60 57 56 55 54 54 57 57 57 56
41 44 38 31 34 41 38 38 50 58 64 66 65 68 70 69 69 68 68 66 66 65 65 65 68 69 71 71 71 72 72 72 72 71 71 68 66 61 58 57 55 54 52 52 54 55 53 53 52
38 37 44 38 29 36 44 48 55 56 58 57 60 65 65 67 65 63 65 67 66 64 63 65 65 67 70 70 71 71 70 71 71 71 71 68 64 55 54 54 52 51 50 51 55 52 49 50 49
46 49 37 36 30 30 44 42 47 54 58 59 58 60 65 68 65 63 64 64 65 66 65 65 67 67 68 70 70 69 68 67 68 69 66 63 58 54 51 50 49 48 49 50 52 49 49 48 47
40 38 39 43 40 36 35 46 58 57 61 59 62 61 61 64 65 64 63 62 62 61 61 62 63 65 66 67 68 66 64 63 64 62 62 61 53 52 49 48 47 47 48 50 50 48 47 47 45
45 40 42 40 33 39 39 43 55 56 56 55 59 61 62 61 61 60 62 60 58 58 58 60 60 61 61 64 64 61 60 58 56 56 55 53 51 50 48 47 46 46 48 49 49 46 47 46 44

GFSSGP_sfc_temp_105.txt.gz
Temp
83 91 91 86 71 71 66 67 76 71 72 76 80 77 76 76 70 60 81 84 85 81 80 80 75 75 75 75 75 75 76 76 77 77 77 77 77 77 77 76 76 76 77 76 76 75 74 73 73
85 88 87 83 67 62 67 73 69 74 76 78 77 76 75 70 75 72 74 84 85 81 82 81 73 75 75 75 75 75 76 76 77 77 77 77 77 76 76 76 76 76 76 76 76 75 74 73 72
84 87 79 74 69 64 66 72 76 74 77 77 74 77 76 70 74 77 82 85 84 81 81 78 73 74 75 75 75 75 75 76 76 77 77 76 76 76 75 75 75 75 76 76 75 74 73 72 72
77 82 81 68 65 72 72 75 78 73 74 76 78 72 75 78 74 78 83 81 80 80 81 73 73 74 75 74 75 75 75 76 76 77 77 77 76 75 75 74 74 74 74 75 74 73 73 72 71
81 80 67 65 68 72 76 77 78 74 76 75 76 71 70 74 77 77 81 84 83 84 83 78 72 73 74 74 75 75 75 76 76 75 75 76 75 74 74 74 74 73 73 73 73 72 72 71 71
67 71 64 62 68 72 76 78 78 76 76 74 73 73 70 74 72 76 83 84 85 83 82 77 70 71 72 73 74 74 74 74 75 75 75 74 74 74 74 73 73 73 73 72 72 71 71 71 70
68 70 65 67 69 69 74 78 76 76 74 73 79 72 71 69 72 78 82 83 82 83 82 78 78 73 68 69 70 71 72 73 73 73 73 72 72 72 72 72 72 72 72 71 71 70 70 70 69
75 72 65 68 67 67 74 76 78 78 75 79 80 73 69 73 70 76 77 77 78 81 82 76 78 79 78 76 66 67 68 69 69 68 68 67 68 68 69 68 70 71 71 70 69 69 69 68 68
76 64 62 66 67 70 75 72 75 76 74 76 77 78 79 75 71 73 71 72 73 76 81 73 77 80 81 76 70 66 65 66 65 66 65 67 77 76 72 64 67 69 69 69 68 68 67 67 66
69 64 65 73 74 72 74 74 73 72 72 72 72 74 77 70 67 69 67 69 68 69 77 73 77 79 80 79 76 76 74 76 77 76 77 78 78 74 73 65 64 65 66 68 68 68 68 69 77
70 65 71 70 73 74 73 73 76 72 70 76 72 71 71 67 66 68 69 73 71 72 74 74 77 79 79 78 78 77 77 77 77 77 76 76 75 74 76 73 73 73 65 75 73 74 75 74 74
64 72 72 68 69 71 70 75 72 74 76 75 81 77 72 65 65 69 71 73 72 71 75 76 77 78 79 79 78 78 77 76 75 76 76 75 74 74 74 75 74 74 75 74 74 74 73 74 74
67 69 69 69 70 70 70 70 71 74 80 77 80 74 71 67 66 73 74 75 75 71 76 75 76 76 78 77 78 78 77 76 77 75 75 76 75 73 75 74 75 75 75 75 74 74 74 74 74
70 70 68 67 70 67 68 70 69 76 81 76 75 73 72 69 68 71 71 74 75 73 75 73 73 75 79 78 78 77 77 77 76 76 75 76 76 75 74 74 74 75 76 75 75 73 73 74 74
69 64 67 66 70 67 66 63 65 77 74 75 74 75 74 71 72 72 73 75 76 74 72 70 70 72 77 78 78 77 77 77 76 76 76 75 75 75 75 75 74 75 74 73 74 74 75 75 75
60 61 56 66 68 69 67 56 71 76 74 74 76 77 74 73 73 75 73 76 78 76 73 72 70 68 70 78 78 78 77 76 76 76 75 74 74 75 74 73 74 74 74 74 74 73 73 73 72
57 51 54 60 67 66 66 60 70 73 71 72 76 77 77 75 73 75 75 77 77 77 76 73 72 70 69 73 78 77 77 76 76 76 76 75 74 74 74 74 73 73 73 73 71 72 70 70 69
49 51 53 55 62 60 61 60 69 72 72 71 74 77 77 75 75 76 77 78 78 78 78 76 74 73 72 74 75 76 75 76 77 77 76 75 74 72 71 71 69 70 70 69 69 67 67 67 68
56 54 53 58 61 60 58 60 63 70 72 71 72 74 75 76 79 78 77 77 77 78 77 75 74 74 75 73 72 72 71 73 74 76 75 75 73 72 71 70 72 71 69 68 67 66 66 67 68
52 51 53 57 59 57 59 59 64 68 69 72 72 75 76 77 77 77 76 76 76 76 76 75 75 75 74 73 74 74 74 75 75 75 74 75 74 72 70 70 69 68 63 64 63 62 63 62 67
53 51 55 53 55 55 55 54 59 65 69 71 74 75 76 77 76 77 75 75 75 74 75 75 76 75 75 74 74 74 75 73 72 72 72 73 73 70 68 67 67 65 64 64 64 63 63 61 64
47 56 57 51 49 42 54 39 56 63 65 68 70 72 75 75 78 78 76 75 74 75 77 77 76 75 75 74 74 72 70 68 71 73 73 71 72 71 69 66 66 65 66 64 65 62 62 61 62
49 56 53 50 44 41 43 38 53 62 61 66 70 71 74 75 77 77 77 75 76 75 75 76 76 76 75 75 73 72 71 72 74 73 72 71 71 72 70 69 68 66 65 63 61 61 60 61 63
52 46 45 40 39 33 45 43 49 57 61 66 70 73 74 75 76 78 78 77 75 75 74 74 74 74 75 74 74 73 71 72 71 71 70 70 68 67 69 69 66 64 63 60 59 58 59 61 63
51 44 33 32 32 35 48 44 49 60 66 68 70 72 74 76 77 77 76 75 73 73 72 72 73 72 73 74 73 72 72 73 72 72 71 68 67 64 64 64 61 60 58 57 56 56 57 59 57
44 49 42 32 35 42 42 40 50 62 67 67 70 72 72 75 74 74 76 75 72 71 70 71 71 70 73 73 73 74 74 74 74 74 72 69 68 67 66 62 61 59 57 54 54 53 53 56 53
39 41 53 41 33 38 46 51 58 60 60 64 65 67 70 71 71 73 74 75 73 71 70 69 70 70 72 73 73 73 72 72 73 73 73 70 70 68 63 60 57 55 53 53 53 50 50 51 50
50 51 37 39 31 32 46 47 49 57 61 65 65 66 69 71 72 71 70 70 71 72 70 69 71 70 70 72 73 72 71 71 72 73 71 69 68 62 59 57 55 51 50 51 52 49 50 49 47
42 41 46 47 46 38 38 48 63 62 61 60 63 65 66 66 68 70 70 69 69 68 68 68 68 69 68 69 71 70 70 70 70 70 69 68 65 60 57 55 53 51 49 50 51 49 48 47 46
50 46 48 40 37 41 40 44 59 62 62 60 62 63 64 64 64 65 65 66 67 64 64 64 66 66 67 69 70 69 70 68 67 66 65 63 60 58 57 53 50 48 48 48 49 48 48 46 44

GFSSGP_sfc_temp_108.txt.gz
Temp
77 82 84 74 61 61 57 61 69 66 66 68 75 71 68 67 64 56 75 78 78 77 76 76 74 75 75 75 75 75 76 77 77 78 77 77 76 77 77 76 76 76 76 76 75 74 74 73 72
77 81 77 70 57 54 58 66 65 68 70 72 71 71 68 62 70 68 70 79 79 78 78 75 73 74 75 75 75 75 76 76 77 77 77 76 76 76 76 76 76 76 76 76 75 74 73 73 72
80 82 66 63 58 55 58 64 67 70 72 71 68 72 70 64 70 70 77 79 79 77 77 73 73 74 75 75 75 75 76 76 77 77 77 76 76 75 75 75 75 75 76 76 75 74 73 72 72
75 73 70 58 58 65 65 69 70 68 67 71 71 64 68 74 71 78 79 80 77 76 75 72 73 74 74 75 75 76 76 77 77 77 76 76 76 75 74 74 74 74 74 75 74 73 72 72 71
75 67 58 56 60 65 70 73 72 68 67 68 67 64 61 70 75 77 77 79 77 75 73 73 72 73 74 74 75 75 75 75 76 76 75 75 74 74 74 74 74 73 73 73 73 72 71 71 71
64 67 56 54 61 67 69 72 69 70 70 67 64 66 61 71 72 74 78 78 79 75 74 73 69 70 72 73 74 74 74 74 74 75 75 74 74 74 73 73 73 73 72 72 72 71 71 70 70
61 58 56 60 62 64 68 71 66 69 67 66 71 63 62 67 72 74 78 80 79 76 73 71 71 68 68 69 70 71 73 73 73 73 72 71 71 72 72 72 72 72 72 71 71 70 70 70 69
68 63 58 61 60 60 68 70 71 71 66 73 71 62 58 67 71 73 75 75 76 75 73 73 71 71 70 69 66 67 68 69 69 69 68 67 68 68 68 68 70 71 70 70 69 69 69 69 69
70 58 54 60 63 64 69 65 68 68 68 67 69 67 69 68 71 70 69 70 71 73 73 72 73 73 71 69 64 64 65 66 66 66 65 65 67 67 65 64 67 69 69 69 69 68 68 67 66
58 56 60 69 68 65 68 65 67 64 65 62 65 69 68 67 68 66 66 66 68 65 69 71 73 75 72 73 67 67 67 66 67 68 66 69 66 66 66 61 64 66 66 68 69 69 67 65 64
62 57 67 67 67 69 69 64 69 63 60 66 64 65 65 66 66 66 66 67 67 66 67 70 71 75 71 70 68 67 65 66 67 67 68 68 66 63 63 60 61 60 61 63 65 65 65 66 65
57 67 68 66 67 67 65 69 64 65 63 68 69 70 65 65 65 67 66 68 67 66 68 71 73 74 70 69 68 66 66 66 65 66 68 65 63 63 63 62 63 63 64 64 64 63 65 65 67
59 62 67 67 65 67 66 63 62 64 69 71 72 70 64 65 66 68 70 72 68 66 68 70 71 72 71 68 67 67 65 65 66 65 67 66 63 62 64 64 64 63 65 64 63 64 64 65 66
61 65 64 65 65 65 64 63 64 64 69 68 69 66 64 63 67 67 70 71 71 68 66 70 71 72 72 68 67 66 66 66 66 65 66 68 65 64 64 64 64 64 64 65 64 63 63 63 65
61 56 63 61 63 64 63 59 58 64 67 66 67 66 66 65 66 65 71 70 70 69 68 68 69 70 71 69 68 67 66 67 65 65 67 67 67 66 65 64 64 64 64 65 64 64 64 64 67
56 57 49 60 62 65 62 50 63 68 62 64 66 66 65 65 66 67 69 70 70 69 68 67 68 68 68 69 68 68 67 65 65 66 66 67 68 67 65 64 64 65 64 64 63 62 61 62 67
51 44 48 55 63 60 58 54 64 70 66 61 64 65 66 66 66 68 70 70 70 71 68 67 66 67 68 66 68 68 67 66 66 65 65 66 67 67 65 64 66 66 63 62 62 61 60 59 62
43 45 50 50 59 58 56 56 62 64 64 62 62 64 65 66 67 69 69 70 72 70 69 68 67 66 65 65 65 66 65 65 66 66 66 67 66 66 64 63 63 63 62 61 60 59 60 63 64
54 50 49 53 60 55 53 57 59 64 62 61 62 63 64 66 70 71 70 70 70 69 69 69 67 67 66 66 64 62 64 65 64 65 67 68 67 65 63 62 62 61 60 60 61 59 60 62 63
51 50 50 54 55 52 54 55 61 62 62 64 65 64 65 66 68 69 69 69 69 69 69 69 68 67 67 67 68 67 67 67 67 65 66 67 66 65 63 62 62 61 59 60 59 59 61 60 62
49 46 47 48 51 52 48 47 54 60 63 65 67 67 67 66 66 67 68 68 69 69 69 69 69 68 69 69 68 66 65 64 64 65 66 68 67 65 63 62 62 61 62 61 60 60 60 58 59
45 53 52 49 46 40 49 37 49 57 58 62 65 66 67 69 67 67 68 68 69 69 70 71 70 70 70 69 67 65 65 63 66 67 67 66 67 65 64 63 62 63 62 61 60 61 60 60 57
47 55 51 48 43 41 42 38 43 54 54 60 64 67 68 70 68 67 67 70 70 70 70 70 70 70 70 69 69 66 65 66 66 67 65 66 66 66 65 64 62 61 62 62 61 60 59 59 58
52 46 44 42 40 33 42 39 42 49 54 58 62 65 66 68 70 70 68 68 69 70 69 69 69 70 70 69 69 67 66 65 64 65 64 64 64 65 64 63 62 62 62 60 60 59 58 58 58
49 44 33 32 32 33 43 39 45 53 57 58 58 60 64 65 68 68 64 63 67 67 68 68 69 69 70 69 68 68 68 67 66 66 66 64 64 63 63 63 63 62 62 60 58 57 56 56 55
45 46 33 27 27 31 36 33 44 57 61 60 61 60 62 61 63 64 65 63 63 66 67 68 68 68 69 69 69 69 69 69 68 68 68 66 65 64 64 64 63 62 59 57 55 54 53 53 51
43 41 48 36 26 29 35 42 51 54 54 55 56 58 58 60 62 59 61 63 63 62 64 66 67 67 68 69 69 68 69 69 69 69 69 67 66 63 62 61 59 55 54 54 53 53 50 49 48
47 49 37 35 24 24 34 37 42 46 51 55 55 54 57 58 57 59 61 61 61 61 61 61 63 65 66 68 68 68 68 68 69 68 67 67 65 62 60 59 56 53 52 52 50 48 48 48 45
40 42 42 44 38 29 27 36 51 52 52 53 55 55 54 54 56 57 57 58 59 58 58 59 59 60 62 64 67 66 67 67 67 67 67 67 64 62 60 56 53 52 50 51 48 47 47 46 44
47 45 44 37 32 35 32 34 51 53 53 54 55 56 54 52 54 54 55 55 55 55 55 55 55 56 58 60 61 62 63 63 64 65 66 63 62 59 57 53 51 50 50 49 48 46 47 45 42

GFSSGP_sfc_temp_111.txt.gz
Temp
71 74 69 69 61 55 49 54 61 61 61 65 67 67 61 61 60 55 69 73 73 72 74 74 74 75 75 75 75 75 76 77 77 77 77 77 77 76 76 76 76 76 76 75 75 74 73 73 73
70 77 70 61 53 49 51 57 59 61 65 66 68 66 62 57 65 65 66 74 74 74 73 73 72 74 75 75 75 75 76 77 77 76 77 76 76 76 76 77 76 76 76 75 75 74 73 73 73
76 75 64 57 50 48 51 59 60 65 68 65 63 67 63 60 65 67 73 75 75 73 73 72 72 74 74 75 75 75 76 76 76 76 76 76 76 75 75 75 75 76 75 75 74 73 73 73 73
71 68 63 56 53 61 59 61 63 62 67 69 64 57 63 68 67 74 77 77 72 71 72 71 73 74 74 74 75 76 76 76 76 77 77 76 75 75 74 74 75 74 74 74 73 73 72 72 72
68 62 54 52 56 61 62 66 66 63 63 62 64 57 57 65 72 75 75 76 72 71 70 71 72 73 74 74 75 76 77 76 76 76 76 75 74 74 74 73 73 73 73 73 72 72 71 71 71
61 60 50 49 57 61 63 69 66 64 63 62 61 57 57 67 68 74 76 73 72 70 70 71 68 70 72 73 74 74 75 75 75 75 75 74 74 73 73 73 73 72 72 72 72 71 71 70 71
57 55 52 52 54 57 62 69 65 63 62 62 67 55 57 63 69 73 72 72 71 71 69 68 68 69 68 69 70 72 73 73 73 73 72 72 72 72 72 72 72 72 71 71 71 70 70 70 70
63 59 54 53 55 54 61 64 64 64 60 66 67 55 55 62 69 70 74 73 70 69 69 66 67 68 67 68 66 67 69 70 70 69 68 67 68 68 68 67 70 71 70 70 70 69 70 70 70
65 53 52 56 58 57 63 61 64 65 65 64 64 61 64 68 66 67 70 71 69 68 68 68 66 66 66 65 63 64 65 66 66 66 65 64 64 64 64 64 68 69 69 69 69 69 69 67 66
58 52 56 62 60 58 63 62 63 62 60 57 57 61 65 64 63 63 67 67 68 65 66 68 67 67 66 70 64 64 65 64 65 64 67 66 64 63 64 61 64 66 67 68 69 69 67 64 62
55 52 62 62 64 66 63 61 63 61 56 61 57 58 61 61 63 66 65 67 67 64 66 67 70 68 67 66 63 62 63 62 63 64 66 66 63 60 60 58 59 59 61 61 64 63 63 63 62
52 57 59 64 66 65 62 63 60 60 61 66 64 62 62 62 65 67 65 66 67 64 65 70 71 70 66 66 63 62 62 62 61 63 64 62 60 59 59 58 59 59 60 60 60 61 62 63 64
53 59 64 66 64 65 64 60 59 60 62 64 65 63 61 62 67 67 68 68 68 65 65 69 70 71 68 64 64 62 62 62 62 63 64 63 61 60 60 60 60 60 61 61 60 61 62 62 64
57 59 61 62 63 63 61 58 60 61 63 62 63 59 60 61 65 66 67 68 67 66 64 68 69 71 71 65 63 63 62 63 62 62 63 64 62 61 61 61 61 61 62 61 61 61 61 61 63
59 56 60 57 59 59 60 55 57 61 64 61 60 58 59 61 62 64 66 69 69 67 67 64 69 68 71 66 64 63 63 63 61 62 64 64 63 62 62 61 61 62 62 63 62 61 61 61 66
50 49 48 58 58 59 58 50 62 65 61 61 59 57 59 60 62 63 66 72 71 68 67 66 68 67 68 66 64 64 63 62 62 62 63 64 64 64 61 61 61 61 62 61 60 60 59 60 64
45 38 43 50 57 57 55 51 62 65 63 60 59 58 59 60 62 63 66 65 66 68 68 66 66 67 68 68 65 64 64 62 63 62 62 64 64 64 62 61 61 62 61 60 60 58 59 58 60
37 40 44 47 54 54 51 52 58 61 61 59 60 61 58 60 62 65 66 67 68 67 68 65 65 65 67 67 63 63 65 64 63 63 64 64 64 64 62 61 60 61 60 59 59 58 57 58 61
45 44 44 48 56 53 50 50 55 60 57 56 57 59 60 60 65 66 67 68 68 65 66 65 64 64 65 63 61 61 63 64 63 64 65 65 65 64 62 61 60 60 59 59 59 57 57 57 62
45 42 43 49 53 51 49 51 57 56 58 59 58 58 60 61 61 65 64 66 67 64 65 65 65 64 65 67 66 62 63 63 66 63 64 65 65 64 63 61 60 60 58 58 58 57 56 58 61
44 42 44 45 47 47 45 45 49 54 57 60 61 62 64 63 63 63 64 64 66 65 65 65 65 65 66 67 66 63 61 60 60 60 63 64 65 64 63 61 61 60 60 59 58 57 58 57 58
40 48 49 46 42 36 46 37 47 52 56 59 62 61 64 64 64 63 65 64 65 66 67 68 66 65 66 66 65 64 63 62 65 65 66 63 64 64 63 63 62 61 60 59 59 59 58 59 56
43 51 48 45 40 41 42 38 41 51 49 54 60 64 65 64 64 65 64 66 67 67 67 68 67 66 66 66 66 64 64 64 64 64 62 64 64 64 64 63 62 61 60 60 59 58 59 60 58
49 45 43 42 41 34 42 40 39 45 50 56 61 62 63 65 65 65 65 66 66 68 67 66 66 66 66 66 66 64 64 63 62 62 62 63 65 64 64 63 62 62 61 60 60 60 60 59 58
47 42 33 32 32 31 42 36 44 51 54 56 57 57 58 59 61 65 63 60 64 65 65 66 66 66 67 66 66 66 65 64 63 64 64 63 63 63 63 62 61 61 61 61 61 59 59 58 57
45 45 33 27 27 33 36 33 41 54 60 61 57 56 57 57 59 59 63 63 64 64 65 65 65 66 67 67 66 66 66 66 66 66 66 65 64 64 64 63 63 62 61 60 60 60 59 56 54
40 40 48 34 21 27 32 38 48 51 53 53 53 54 55 56 58 59 58 58 61 63 63 65 65 66 67 67 67 66 66 66 66 67 66 66 66 65 64 62 62 62 60 59 58 58 56 55 52
47 51 38 36 21 21 30 33 39 45 50 53 52 51 53 54 55 57 57 58 58 58 60 62 65 65 66 67 67 67 66 66 67 67 65 66 65 64 62 61 61 61 58 55 54 52 50 50 47
39 42 42 44 34 28 25 32 46 51 50 51 53 53 51 51 52 53 54 54 55 55 55 57 59 63 62 63 66 65 65 65 65 66 64 64 62 62 60 60 59 57 55 53 53 52 50 49 45
46 44 45 37 32 33 31 34 49 52 51 51 52 53 52 52 52 52 52 52 52 53 53 54 53 54 57 58 61 61 63 63 63 63 65 63 61 62 62 60 58 56 54 52 52 49 49 48 44

GFSSGP_sfc_temp_114.txt.gz
Temp
71 71 67 68 58 53 48 53 57 58 57 62 64 64 59 58 58 55 65 70 71 70 72 73 74 75 75 75 75 75 76 76 77 77 77 76 76 76 76 76 76 75 75 75 74 74 74 74 73
71 75 68 60 51 46 48 55 57 59 62 64 64 62 59 55 62 63 66 71 72 71 72 71 72 74 75 75 75 75 76 76 77 77 76 76 76 77 76 76 75 75 75 75 74 74 74 73 73
75 72 63 56 50 46 49 58 57 60 62 62 61 64 60 58 63 64 69 71 72 70 70 71 72 74 74 74 75 75 75 76 76 76 76 76 75 75 75 76 75 75 74 74 74 74 73 73 73
71 67 62 54 51 55 57 59 60 61 62 66 62 56 61 65 65 68 72 72 69 69 69 70 72 74 74 74 75 75 75 76 76 76 76 75 75 75 74 75 74 74 74 73 73 73 72 72 73
67 60 51 50 53 57 58 62 61 60 60 63 62 55 55 65 68 71 71 71 68 68 68 70 72 73 74 75 75 75 75 75 76 76 75 75 74 74 73 73 73 73 73 73 72 72 72 72 72
60 57 49 50 53 59 60 64 64 61 61 60 57 56 57 64 66 70 73 71 70 67 68 69 68 70 72 73 74 74 75 75 75 75 74 74 73 73 73 73 73 72 72 72 72 71 71 71 71
56 53 49 50 51 54 62 65 61 62 62 61 62 54 56 59 66 72 72 70 70 68 67 66 68 69 68 69 70 72 73 73 73 73 73 72 72 72 72 71 72 72 71 71 71 70 71 71 71
58 57 51 54 55 57 59 62 61 61 61 68 63 53 55 62 66 70 68 66 66 66 66 65 66 67 66 66 66 67 69 70 70 69 68 67 67 68 68 67 70 71 71 70 70 70 70 70 69
60 53 51 54 55 56 60 58 62 62 63 61 60 58 62 66 65 65 66 64 65 65 65 65 65 65 65 65 64 64 66 66 66 65 64 63 63 63 64 64 68 69 69 70 69 69 69 67 65
54 49 54 60 56 55 60 58 61 59 57 56 56 60 62 62 63 62 64 63 64 64 63 65 64 64 64 68 63 63 64 63 63 62 62 63 62 62 63 61 64 66 67 68 69 69 67 63 60
53 52 59 63 63 60 61 57 60 59 54 58 57 57 59 60 60 61 64 66 66 66 64 63 64 65 64 64 62 61 61 61 61 62 63 62 61 59 59 58 59 59 60 60 62 62 61 61 60
49 57 59 60 64 64 60 60 57 57 59 64 62 61 61 60 60 62 63 67 65 65 66 66 65 65 63 63 61 61 60 60 60 61 62 60 58 57 57 56 57 57 58 59 59 59 60 61 62
50 56 59 61 62 63 62 58 58 58 61 61 61 61 60 61 61 63 67 68 67 66 65 68 67 65 65 63 61 60 60 60 61 61 62 60 58 57 58 57 57 58 59 59 58 59 61 61 62
55 55 58 61 61 62 59 56 58 58 59 57 59 58 59 60 61 62 64 67 67 67 66 66 68 68 67 64 61 60 60 61 60 60 61 62 60 58 58 58 59 59 59 59 59 59 59 60 61
54 50 54 58 59 57 60 54 55 60 59 56 56 56 57 59 60 62 65 67 67 69 68 64 68 68 69 66 64 62 61 62 60 60 61 61 61 59 59 58 59 59 59 60 59 59 59 58 64
48 46 41 54 57 59 57 50 60 62 58 56 55 55 57 59 61 63 63 66 67 70 66 66 67 68 69 66 65 64 63 62 62 61 61 61 62 61 59 59 59 60 59 59 59 58 57 57 58
42 36 39 47 56 55 55 51 59 62 60 58 54 54 56 57 58 62 64 66 67 68 66 65 65 65 66 64 65 64 63 62 62 61 61 62 62 62 60 59 60 60 59 59 58 57 57 56 57
35 36 40 41 53 51 50 51 55 58 57 57 57 55 56 57 59 62 64 66 64 67 67 68 66 66 64 66 62 61 61 61 61 62 63 62 62 61 60 59 59 59 58 58 57 57 57 57 57
43 41 41 43 53 49 49 52 52 57 54 54 55 55 55 58 63 63 64 65 65 64 65 65 65 66 66 62 63 60 61 61 60 62 63 63 63 61 60 59 59 59 58 58 58 57 56 55 57
42 38 38 46 50 48 47 48 56 53 54 56 56 56 56 56 59 61 62 62 64 63 64 64 65 66 65 67 64 62 63 61 64 62 60 63 62 62 61 60 59 59 57 57 57 56 55 55 56
42 40 39 42 46 45 42 43 48 51 55 56 58 62 61 60 60 61 61 62 64 64 63 64 65 66 66 67 62 60 59 58 58 57 60 62 62 62 62 60 60 59 58 58 57 56 56 55 56
39 45 46 44 42 35 44 35 45 51 53 54 58 59 60 60 63 63 63 62 63 65 64 65 65 65 65 66 65 63 62 61 63 64 63 62 62 63 63 62 61 61 60 58 58 58 57 56 56
42 48 46 44 42 40 40 37 40 47 46 52 58 62 63 64 63 63 64 65 64 66 64 65 65 64 65 65 66 64 63 64 64 63 62 62 62 64 63 63 61 61 59 60 59 56 57 58 56
48 43 42 38 40 34 40 39 38 45 48 51 56 58 61 61 62 64 64 65 65 66 65 64 64 63 64 64 64 64 63 63 62 60 60 61 62 62 63 62 62 61 60 59 59 59 58 58 58
46 40 32 31 31 31 41 35 44 48 51 56 58 58 56 56 58 60 60 60 64 63 64 64 63 63 63 63 63 64 63 63 63 61 61 61 61 62 62 62 61 61 60 60 60 59 59 58 58
42 42 31 26 26 31 36 33 41 51 59 61 59 57 55 54 56 57 59 59 63 63 64 64 63 64 63 63 63 64 64 64 64 63 64 63 63 64 64 62 63 62 61 60 59 59 59 59 58
41 38 45 33 20 25 32 37 44 49 51 55 54 52 53 54 54 55 58 57 59 62 64 64 64 64 64 64 64 64 64 64 64 64 64 64 64 64 63 62 61 62 60 60 59 59 58 58 57
47 49 37 37 23 21 29 30 40 42 49 56 50 50 52 53 53 53 55 55 53 57 61 63 64 64 65 65 66 65 65 65 66 66 64 64 65 63 61 61 61 61 60 60 59 59 59 57 56
40 41 42 42 33 28 24 33 43 51 53 55 52 53 51 51 52 53 52 52 52 53 53 55 57 60 61 63 65 65 64 65 65 64 64 64 63 63 62 61 61 60 60 60 59 59 58 54 54
46 43 43 37 33 31 30 36 46 46 48 49 51 52 50 51 50 51 50 50 51 53 52 52 54 56 57 58 60 61 63 62 62 62 64 64 62 63 62 61 60 60 60 59 57 56 54 52 51

GFSSGP_sfc_temp_117.txt.gz
Temp
70 72 68 68 57 53 47 51 54 56 55 59 61 61 59 56 58 51 65 68 69 69 71 72 74 75 75 75 75 75 76 76 77 76 76 76 76 76 76 75 75 75 75 75 75 74 74 74 74
70 74 69 59 51 45 48 53 55 57 60 60 62 59 57 54 60 64 65 69 70 70 70 70 72 74 75 75 75 75 75 76 76 76 76 76 76 76 76 76 75 75 74 75 75 74 74 74 73
75 71 65 55 47 46 48 54 57 58 61 60 58 60 57 55 62 64 67 69 69 68 69 69 72 74 74 74 75 75 75 75 76 76 76 76 75 76 75 75 75 74 74 74 74 74 73 73 73
71 69 62 54 48 54 55 57 59 59 59 62 59 55 59 63 64 66 69 69 67 66 68 70 72 74 74 74 75 75 75 75 76 76 75 75 75 75 75 73 74 74 73 74 74 73 73 73 73
67 63 52 48 51 55 56 59 59 58 57 57 58 52 54 63 66 68 68 69 66 66 67 69 72 73 73 74 75 75 75 75 75 75 75 74 74 74 74 73 73 73 73 73 73 72 72 72 72
60 57 49 47 52 57 57 59 59 58 58 56 56 55 57 62 65 66 68 66 68 66 67 68 68 70 72 73 73 74 74 75 74 74 74 73 73 73 73 73 72 72 72 72 72 72 71 71 71
57 53 50 47 51 52 58 61 56 59 58 57 60 53 55 59 64 68 69 69 67 67 66 66 67 68 68 69 70 72 73 73 73 73 73 72 72 72 72 71 72 72 72 72 71 71 71 71 71
58 55 50 47 54 52 57 58 59 59 57 61 60 53 54 61 65 68 69 68 67 65 65 65 66 66 66 66 66 67 69 70 70 69 68 67 68 68 68 67 70 71 71 70 70 70 70 70 69
57 49 47 51 56 57 62 57 60 59 60 57 58 58 60 65 64 65 64 63 64 64 63 64 64 64 65 64 63 64 65 66 66 65 64 63 62 63 63 63 68 70 69 70 70 69 69 67 65
52 48 51 57 56 53 56 56 60 56 55 53 54 59 60 62 61 61 62 62 62 63 64 63 63 63 64 66 63 63 64 63 62 62 61 61 61 61 62 61 64 66 66 68 69 69 66 62 59
51 49 55 58 61 59 58 55 57 56 53 58 58 57 58 58 59 61 63 65 63 63 64 64 63 63 63 63 61 61 61 61 60 60 61 61 60 59 59 58 59 58 59 59 61 60 59 60 59
47 55 56 61 60 60 57 60 55 55 59 62 62 59 60 60 59 60 61 63 63 64 64 63 63 63 62 62 61 60 60 59 59 60 61 59 57 56 56 56 56 56 57 57 57 57 59 59 60
48 53 57 59 60 61 60 58 57 57 58 57 59 59 60 61 60 60 62 63 66 64 65 64 63 63 63 62 61 60 59 59 60 60 61 59 57 56 56 55 55 56 56 57 57 57 58 59 59
52 53 54 57 57 59 56 55 57 59 56 56 58 57 58 60 60 59 61 63 64 65 66 66 64 64 64 63 61 61 60 60 59 59 60 60 58 57 57 56 57 57 57 58 57 57 58 58 58
52 48 52 54 57 57 56 52 54 60 56 55 55 55 57 59 59 61 64 63 64 66 67 67 65 64 64 63 62 61 61 61 60 60 60 60 59 58 58 57 57 58 58 58 57 58 58 57 59
46 44 40 50 55 59 57 48 59 61 56 55 54 54 55 58 59 61 62 63 63 65 65 66 68 65 64 64 62 62 61 61 61 60 60 60 60 59 57 57 57 58 58 58 57 57 56 56 56
39 34 36 45 53 54 54 50 59 60 57 55 53 54 55 57 57 60 61 62 62 65 64 63 66 65 65 66 64 62 61 60 60 59 59 60 60 60 58 57 58 59 58 57 57 56 55 55 55
34 34 37 39 48 48 48 48 54 56 55 55 54 54 54 56 58 62 63 62 63 63 63 65 64 66 65 65 65 60 60 61 61 61 61 60 61 60 59 58 58 58 57 57 56 56 55 55 55
41 39 39 40 49 46 45 49 55 58 52 52 52 53 55 56 61 62 62 62 61 61 61 63 63 64 64 62 59 59 60 60 60 61 62 61 61 59 59 58 58 57 57 57 57 56 55 54 55
40 37 36 43 48 45 44 45 51 52 52 55 56 55 55 55 57 59 60 60 61 62 63 63 64 65 64 66 65 64 63 60 63 60 58 60 60 61 60 59 58 57 57 56 56 55 54 54 54
40 39 37 39 44 43 40 41 47 49 53 55 54 59 59 60 60 60 58 60 61 62 62 63 64 65 65 67 63 59 59 57 56 56 59 59 61 61 61 59 59 58 58 58 56 56 55 53 53
37 44 44 42 39 33 40 32 43 46 50 51 57 58 58 59 60 63 61 60 61 63 64 64 65 64 65 66 63 63 62 60 62 63 62 61 61 61 61 60 60 59 58 58 58 57 57 54 53
41 46 44 42 38 37 37 36 39 45 47 49 55 58 59 61 62 62 62 63 62 65 65 64 64 64 65 65 66 63 63 64 63 61 59 59 59 61 61 61 60 59 59 59 59 55 56 56 55
46 42 40 38 37 32 40 36 39 45 45 49 53 57 59 61 61 63 64 65 65 64 65 64 63 63 64 64 64 64 63 63 61 59 59 59 61 60 61 61 61 61 60 59 58 58 57 57 57
46 38 32 30 30 28 39 34 43 46 49 51 55 55 57 56 58 58 59 58 62 62 63 64 62 62 63 63 63 64 64 63 63 61 60 60 59 60 61 60 60 61 61 60 59 58 58 57 57
41 42 32 25 25 29 33 31 41 49 57 59 57 56 53 54 55 55 58 59 60 61 62 63 61 62 62 62 63 63 64 64 64 64 63 62 62 62 63 61 62 61 61 60 59 59 58 58 57
39 36 43 34 19 24 30 36 44 46 48 51 54 56 54 54 55 55 56 55 57 59 61 62 62 62 63 62 63 63 64 64 64 64 64 64 63 63 61 61 60 61 60 60 59 59 58 58 57
43 47 34 35 25 21 28 29 37 39 46 52 57 55 50 50 52 54 54 54 54 56 59 61 63 62 63 63 63 63 63 64 64 64 62 62 64 63 60 60 60 60 60 60 59 59 59 58 58
40 39 39 39 33 26 25 34 41 48 50 52 55 53 50 50 50 52 53 52 52 52 54 56 58 60 61 61 63 62 62 63 63 63 63 63 62 62 60 60 60 60 59 60 59 59 60 58 58
46 43 42 34 29 31 28 36 46 46 47 47 51 51 51 50 49 48 49 50 51 51 50 52 54 55 57 59 59 59 61 60 60 61 62 61 60 61 61 60 59 60 60 61 60 59 58 57 56

GFSSGP_sfc_temp_120.txt.gz
Temp
70 71 68 67 58 52 46 51 53 54 54 57 59 58 57 54 56 50 63 67 68 68 70 72 74 75 75 75 75 75 76 76 76 76 76 76 76 76 75 75 75 75 76 75 74 75 75 74 73
69 74 69 59 51 45 49 51 55 56 58 58 59 57 56 51 58 64 63 67 68 69 69 70 72 74 75 75 75 75 76 76 76 76 76 76 76 76 75 75 75 74 75 74 74 74 74 73 73
73 71 65 54 47 47 49 53 54 57 59 58 56 58 55 55 63 63 65 68 68 67 68 69 72 74 74 74 74 75 75 75 76 76 76 76 76 76 75 75 74 74 75 75 74 74 74 73 72
69 70 63 53 47 53 55 54 56 57 57 59 58 54 56 61 64 65 68 67 66 66 67 70 72 74 74 74 75 75 75 76 76 76 75 75 75 75 75 75 74 74 74 74 74 73 73 73 72
67 64 56 50 52 55 57 58 58 56 55 54 56 53 52 60 64 66 66 67 65 65 66 68 72 73 73 74 74 74 75 75 75 75 75 74 75 74 74 74 74 73 73 73 73 73 72 72 72
61 59 48 45 51 55 56 59 59 56 56 55 55 54 55 60 64 65 66 65 66 65 66 67 68 70 71 73 73 73 74 74 74 74 74 74 73 73 73 73 73 72 72 72 72 72 72 71 71
56 53 47 46 48 51 56 60 55 56 55 57 60 53 53 60 63 65 65 65 65 66 66 66 66 67 67 69 70 71 73 73 73 73 73 72 72 72 72 72 72 72 72 72 71 71 71 71 70
56 53 45 45 49 50 55 58 58 58 56 58 59 53 52 59 63 65 66 66 66 64 65 64 65 65 65 66 66 67 69 70 70 69 68 67 68 68 68 67 70 71 71 71 70 70 70 69 69
56 49 46 48 49 52 55 56 58 58 57 55 57 56 56 62 64 64 64 64 64 64 63 64 64 64 64 64 63 64 65 65 65 65 63 62 62 62 62 63 68 70 69 70 70 69 68 65 65
53 47 49 54 51 53 57 56 58 56 54 53 53 57 59 62 63 62 62 62 62 63 64 65 63 63 63 66 62 63 63 62 62 62 61 61 60 60 61 60 64 66 66 68 69 68 65 61 58
51 50 52 55 56 55 57 55 57 55 51 57 57 58 58 59 59 62 63 64 63 63 64 65 62 62 62 62 60 61 61 60 60 60 60 60 59 58 58 58 58 57 59 58 59 59 58 58 57
47 54 53 57 57 58 58 60 55 55 58 58 61 59 58 58 58 60 63 65 61 60 62 66 62 62 61 61 60 60 60 59 58 59 60 58 57 56 56 56 56 55 56 56 56 56 57 58 58
47 51 55 57 57 59 61 58 56 57 60 56 58 58 58 59 59 59 62 65 65 61 61 64 63 62 61 60 60 59 59 59 59 58 60 59 57 56 55 55 55 55 55 56 56 56 57 57 58
49 51 53 54 55 58 58 55 54 58 56 55 57 56 57 59 59 57 59 62 64 63 62 63 63 63 62 60 60 59 59 59 58 58 59 59 58 56 55 55 55 55 56 56 56 56 56 57 57
50 47 50 51 52 54 54 52 52 58 55 55 55 55 55 57 58 59 61 61 63 63 63 63 63 63 62 62 60 59 59 59 58 58 59 59 58 57 56 56 55 56 57 57 57 57 56 56 58
44 43 38 49 52 55 51 47 56 58 55 56 54 54 55 56 58 59 60 60 61 62 63 64 65 63 62 62 61 60 60 59 59 59 59 59 59 58 56 56 56 57 57 57 56 56 55 55 55
39 33 34 43 50 50 50 46 56 58 55 55 53 53 54 56 57 58 60 60 61 62 62 63 64 63 63 62 62 61 60 60 60 59 59 59 59 59 57 56 56 57 57 56 56 55 55 54 54
35 36 35 37 45 45 45 47 52 53 52 53 53 53 53 55 57 61 60 60 61 61 61 63 64 64 65 65 63 62 60 60 59 60 60 60 60 59 57 56 56 57 56 56 55 55 54 54 53
40 36 37 38 47 43 43 46 52 55 51 50 52 52 54 55 61 61 60 59 60 60 61 62 62 63 64 64 61 60 60 60 59 59 60 60 60 58 57 57 56 56 57 57 56 55 54 53 53
40 36 35 42 45 43 43 43 50 50 51 54 57 55 56 54 57 60 59 58 60 62 62 62 62 62 63 64 64 61 61 60 63 60 59 59 59 59 59 58 57 57 56 55 55 54 53 53 54
39 41 40 38 42 41 39 39 44 48 49 54 53 58 59 59 57 60 57 59 60 61 62 62 63 64 64 65 62 57 58 56 56 56 58 59 60 60 59 58 58 57 57 57 56 55 54 53 52
37 43 43 41 38 31 37 30 40 44 47 49 53 54 56 59 57 61 60 60 60 62 63 64 64 63 64 64 63 61 62 60 61 63 61 60 59 60 59 59 59 58 58 58 57 57 56 54 54
39 44 42 41 38 35 36 34 38 40 42 47 51 52 56 56 59 60 62 63 62 63 64 64 64 64 65 64 65 62 62 64 63 60 57 59 58 60 59 59 58 58 58 58 58 55 56 56 57
45 41 39 36 36 31 37 34 36 41 43 46 50 53 55 55 58 60 63 62 64 62 63 64 63 63 64 64 64 63 63 63 61 58 58 57 59 58 59 59 60 59 59 58 58 58 57 57 57
42 37 27 30 30 27 35 32 41 46 46 48 51 53 55 54 54 55 58 57 61 59 61 62 62 62 63 64 64 64 63 63 63 61 60 59 57 59 59 59 59 60 59 60 59 57 57 57 57
41 39 29 26 24 27 32 30 38 48 55 57 58 58 57 52 51 53 56 57 57 59 60 62 62 62 63 63 63 64 65 64 64 64 63 61 62 61 61 59 60 60 60 59 58 58 58 58 57
39 36 42 32 17 25 29 35 43 44 46 48 50 52 53 55 53 52 54 54 55 56 58 59 62 61 62 62 63 63 64 65 64 64 64 63 62 63 60 59 59 60 59 59 59 58 58 58 57
42 45 33 34 24 20 28 28 36 40 44 48 50 54 55 49 51 51 51 52 53 54 55 56 60 61 61 62 62 63 63 63 65 65 63 63 63 61 58 58 59 59 59 59 59 59 59 58 58
38 37 37 37 33 25 21 31 40 47 50 47 49 51 50 51 50 50 49 50 50 51 51 53 56 57 57 59 60 60 61 62 62 62 62 62 60 59 58 59 58 59 58 59 59 59 59 58 58
43 40 41 33 28 32 30 35 46 45 45 46 48 50 48 48 49 47 47 47 48 49 49 50 52 55 56 56 56 57 59 58 59 59 60 59 59 58 59 59 58 58 59 59 58 58 58 58 57

GFSSGP_sfc_temp_123.txt.gz
Temp
71 73 72 70 61 57 53 56 61 60 61 63 64 63 63 62 62 57 67 71 71 72 74 76 74 75 75 75 75 75 76 76 76 76 76 76 75 76 76 75 76 76 75 75 75 76 74 73 73
72 75 70 63 55 50 53 59 58 61 61 62 63 63 62 60 63 64 66 70 72 73 74 75 72 75 75 75 75 75 75 76 76 76 76 76 76 76 76 75 75 75 75 75 75 75 74 73 73
75 74 67 57 52 51 53 59 61 62 61 63 60 62 61 60 65 67 69 71 72 72 73 73 72 74 75 74 75 75 75 76 76 76 76 76 76 75 75 75 75 75 75 74 76 75 74 73 72
71 70 65 58 53 57 59 62 61 59 63 64 62 60 62 67 68 69 70 71 71 70 72 72 73 74 74 74 75 75 75 75 76 76 76 76 76 75 75 75 74 75 75 74 74 74 73 73 72
68 64 56 53 55 59 61 63 61 60 62 61 63 60 59 66 68 69 69 70 69 70 72 73 72 73 74 74 74 75 75 75 75 75 75 75 75 75 74 74 73 74 74 74 74 73 73 72 72
63 61 52 50 54 59 61 62 63 62 61 59 61 58 60 65 66 67 69 69 71 69 70 72 69 70 72 73 73 73 74 75 74 74 74 74 74 74 74 73 73 73 73 73 73 72 72 71 71
58 56 52 51 53 56 61 62 61 62 61 61 63 58 61 63 67 68 68 69 69 70 69 70 71 70 67 69 70 71 73 73 73 73 73 72 72 72 72 72 72 72 72 72 72 71 71 71 70
57 56 51 51 52 53 60 61 63 63 61 63 65 60 61 63 66 67 68 68 68 68 69 69 70 70 71 72 66 67 69 70 70 70 68 67 68 68 68 67 70 72 71 71 70 70 69 69 69
60 51 48 52 53 56 60 60 62 63 60 61 63 63 64 64 66 65 65 65 66 66 67 68 68 69 69 70 67 65 66 66 66 66 63 64 69 69 68 65 68 69 70 70 70 69 67 65 66
56 49 52 57 57 57 59 59 61 61 59 60 61 61 61 64 64 63 63 63 64 64 65 67 68 68 68 69 68 69 68 69 69 68 68 68 67 67 66 64 64 66 66 68 69 67 64 64 68
54 52 56 58 59 58 58 58 61 59 57 61 61 61 59 63 63 64 64 65 65 66 67 67 66 68 67 67 67 67 67 67 67 67 66 66 65 65 66 65 65 66 61 67 67 67 67 66 67
50 56 56 58 58 57 57 59 58 59 63 64 65 63 60 61 62 63 64 65 64 64 66 67 66 66 67 67 66 66 66 65 65 65 65 65 64 63 64 64 64 64 65 65 65 66 65 65 65
50 54 56 56 57 57 58 57 59 59 63 62 62 60 59 61 62 64 66 66 66 62 64 66 66 66 66 65 65 65 65 65 65 65 65 65 64 63 63 63 63 64 64 65 65 65 65 65 65
51 52 54 55 55 56 56 56 56 61 60 60 59 59 59 60 61 61 62 64 65 64 63 66 65 66 66 66 65 65 65 65 65 64 65 64 65 64 63 62 63 63 64 64 65 65 65 64 64
51 48 51 52 54 55 56 52 53 61 58 60 59 59 58 59 60 61 63 64 66 67 65 64 65 65 66 66 65 65 65 64 64 64 65 64 64 64 63 63 62 63 64 64 64 64 64 64 64
46 46 41 50 51 55 55 48 56 61 58 59 58 57 57 59 60 61 63 64 64 65 64 65 66 65 65 66 65 65 65 65 64 64 65 64 64 64 63 63 63 64 64 64 63 64 64 64 64
41 36 37 44 51 50 52 48 55 58 56 57 57 57 57 58 59 60 62 63 64 65 65 64 65 65 65 65 65 65 65 65 65 64 64 64 64 64 64 63 63 63 63 63 62 63 63 62 62
35 37 37 39 46 46 45 47 52 54 55 56 56 56 56 58 60 63 62 62 64 65 66 66 65 66 65 66 65 65 63 64 64 64 64 64 64 63 62 62 62 62 62 62 61 62 61 62 62
41 38 38 41 47 44 43 44 50 53 52 52 55 56 56 58 64 64 62 62 62 63 63 64 64 65 65 65 63 62 62 62 62 63 64 64 64 63 62 62 62 61 61 61 62 61 60 58 60
42 38 37 42 45 44 43 43 50 50 53 54 56 55 57 60 59 62 61 61 61 63 64 64 64 66 65 66 66 65 65 65 66 64 63 64 63 63 63 62 61 61 60 60 60 60 58 60 59
39 42 40 42 43 42 40 40 45 49 49 52 54 58 61 60 60 61 62 60 62 62 64 64 64 65 66 66 65 61 62 60 61 61 62 62 63 63 62 62 62 61 61 60 60 60 59 59 58
39 44 44 43 41 35 40 32 42 46 49 50 52 52 56 59 59 61 63 60 61 63 65 65 65 65 65 66 64 63 64 62 64 65 64 63 63 63 62 62 62 61 61 61 61 61 61 60 59
41 44 42 41 38 36 36 35 40 42 43 47 52 54 54 58 59 59 60 63 64 64 64 65 65 65 66 65 66 64 64 66 67 65 63 63 62 63 63 62 61 61 61 62 62 60 60 60 61
44 41 39 38 37 31 36 34 34 41 44 47 52 55 55 56 58 59 62 61 62 61 63 63 64 64 65 65 65 66 64 65 64 62 61 61 62 62 62 62 62 62 62 61 61 61 60 60 61
43 40 30 29 29 28 35 32 41 45 46 50 52 53 55 54 55 57 57 57 59 59 60 62 63 62 64 64 65 65 65 65 64 63 62 62 60 61 61 61 61 62 62 62 62 60 60 60 60
40 40 30 22 23 26 33 32 38 47 54 53 53 55 55 53 53 52 56 57 57 58 59 61 62 62 63 63 64 65 66 66 66 66 64 63 63 63 64 61 62 62 62 62 61 61 60 61 59
37 35 42 32 18 25 31 35 44 44 45 47 49 51 53 52 53 54 54 55 57 56 58 59 60 62 63 63 64 64 65 66 65 66 66 64 64 64 62 61 61 61 61 61 61 60 60 59 59
42 43 34 34 24 21 28 29 36 41 49 53 48 50 51 52 52 54 53 52 53 55 55 56 59 61 62 63 63 64 64 65 66 66 64 64 65 63 60 60 60 60 60 60 60 60 60 59 58
36 36 37 36 33 25 20 31 39 46 49 46 47 49 49 50 52 50 49 49 50 50 51 52 54 57 59 60 61 61 62 63 64 64 64 64 63 61 60 60 60 60 59 60 59 60 60 58 58
40 37 38 32 29 32 31 33 47 47 44 45 46 48 48 48 48 48 47 47 48 48 49 51 52 53 56 57 59 59 60 61 61 61 62 61 61 60 60 60 59 59 59 60 59 58 58 58 57